TimeEST,TemperatureF,Dew PointF,Humidity,Sea Level PressureIn,VisibilityMPH,Wind Direction,Wind SpeedMPH,Gust SpeedMPH,PrecipitationIn,Events,Conditions,WindDirDegrees,DateUTC
12:55 AM,42.1,36.7,81,29.89,10.0,West,6.9,-,N/A,,Clear,280,2013-02-20 05:55:00
1:55 AM,40.8,34.9,79,29.90,10.0,WNW,9.2,-,N/A,,Clear,290,2013-02-20 06:55:00
2:55 AM,39.9,30.6,69,29.91,10.0,WNW,9.2,-,N/A,,Clear,290,2013-02-20 07:55:00
3:55 AM,38.5,27.9,66,29.93,10.0,West,5.8,-,N/A,,Clear,280,2013-02-20 08:55:00
4:55 AM,37.8,23.9,57,29.94,10.0,West,8.1,-,N/A,,Clear,280,2013-02-20 09:55:00
5:55 AM,37.4,20.8,51,29.97,10.0,West,9.2,18.4,N/A,,Clear,280,2013-02-20 10:55:00
6:55 AM,35.4,21.2,56,30.00,10.0,WNW,8.1,-,N/A,,Clear,290,2013-02-20 11:55:00
7:55 AM,37.0,19.2,49,30.02,10.0,West,10.4,-,N/A,,Clear,280,2013-02-20 12:55:00
8:55 AM,39.0,20.3,47,30.03,10.0,West,10.4,-,N/A,,Clear,280,2013-02-20 13:55:00
9:55 AM,41.5,18.5,40,30.03,10.0,West,10.4,-,N/A,,Clear,280,2013-02-20 14:55:00
10:55 AM,43.0,17.2,36,30.03,10.0,WNW,12.7,-,N/A,,Clear,300,2013-02-20 15:55:00
11:55 AM,44.1,16.9,34,30.02,10.0,NW,13.8,-,N/A,,Clear,320,2013-02-20 16:55:00
12:55 PM,45.5,17.6,33,30.00,10.0,NW,11.5,-,N/A,,Clear,320,2013-02-20 17:55:00
1:55 PM,46.2,17.6,32,29.99,10.0,NW,10.4,-,N/A,,Clear,310,2013-02-20 18:55:00
2:55 PM,46.9,17.6,31,29.99,10.0,NW,9.2,-,N/A,,Clear,310,2013-02-20 19:55:00
3:55 PM,47.5,14.5,27,29.99,10.0,WNW,15.0,21.9,N/A,,Clear,300,2013-02-20 20:55:00
4:55 PM,46.4,15.6,29,30.00,10.0,WNW,8.1,-,N/A,,Clear,290,2013-02-20 21:55:00
5:55 PM,43.9,17.4,35,30.03,10.0,WNW,9.2,-,N/A,,Clear,300,2013-02-20 22:55:00
6:55 PM,40.6,19.6,43,30.05,10.0,WNW,9.2,-,N/A,,Clear,300,2013-02-20 23:55:00
7:55 PM,38.3,22.8,54,30.06,10.0,West,3.5,-,N/A,,Clear,260,2013-02-21 00:55:00
8:55 PM,37.2,24.1,59,30.10,10.0,NE,9.2,17.3,N/A,,Clear,40,2013-02-21 01:55:00
9:55 PM,36.0,21.9,57,30.14,10.0,North,5.8,-,N/A,,Clear,10,2013-02-21 02:55:00
10:55 PM,34.9,16.7,48,30.15,10.0,North,6.9,-,N/A,,Clear,360,2013-02-21 03:55:00
11:55 PM,33.4,17.2,52,30.14,10.0,North,8.1,-,N/A,,Clear,10,2013-02-21 04:55:00